TimeMST,TemperatureF,Dew PointF,Humidity,Sea Level PressureIn,VisibilityMPH,Wind Direction,Wind SpeedMPH,Gust SpeedMPH,PrecipitationIn,Events,Conditions,WindDirDegrees,DateUTC
12:53 AM,15.1,10.9,84,30.27,10.0,Calm,Calm,-,N/A,,Clear,0,2013-12-05 07:53:00
1:53 AM,16.0,10.9,81,30.26,10.0,SE,3.5,-,N/A,,Overcast,130,2013-12-05 08:53:00
2:53 AM,17.1,12.0,81,30.26,10.0,ESE,4.6,-,N/A,,Overcast,120,2013-12-05 09:53:00
3:53 AM,17.1,12.0,81,30.26,10.0,Calm,Calm,-,N/A,,Overcast,0,2013-12-05 10:53:00
4:53 AM,16.0,12.0,84,30.26,10.0,Calm,Calm,-,N/A,,Overcast,0,2013-12-05 11:53:00
5:53 AM,16.0,10.9,81,30.26,10.0,Calm,Calm,-,N/A,,Overcast,0,2013-12-05 12:53:00
6:53 AM,16.0,9.0,74,30.25,10.0,Calm,Calm,-,N/A,,Overcast,0,2013-12-05 13:53:00
7:53 AM,16.0,9.0,74,30.27,10.0,Calm,Calm,-,N/A,,Overcast,0,2013-12-05 14:53:00
8:53 AM,16.0,10.0,77,30.28,10.0,Calm,Calm,-,N/A,,Overcast,0,2013-12-05 15:53:00
9:53 AM,17.1,9.0,71,30.27,10.0,Calm,Calm,-,N/A,,Overcast,0,2013-12-05 16:53:00
10:53 AM,19.0,9.0,65,30.29,10.0,Calm,Calm,-,N/A,,Overcast,0,2013-12-05 17:53:00
11:53 AM,21.0,10.0,63,30.27,10.0,Calm,Calm,-,N/A,,Overcast,0,2013-12-05 18:53:00
12:53 PM,21.9,10.0,60,30.25,10.0,WNW,5.8,-,N/A,,Overcast,300,2013-12-05 19:53:00
1:53 PM,23.0,5.0,46,30.22,10.0,NW,4.6,-,N/A,,Partly Cloudy,320,2013-12-05 20:53:00
2:53 PM,23.0,6.1,48,30.22,10.0,NW,6.9,-,N/A,,Overcast,310,2013-12-05 21:53:00
3:27 PM,23.0,6.8,50,30.11,10.0,NW,4.6,-,N/A,,Mostly Cloudy,320,2013-12-05 22:27:00
3:28 PM,23.0,6.8,50,30.11,10.0,NW,4.6,-,N/A,,Mostly Cloudy,310,2013-12-05 22:28:00
3:53 PM,23.0,3.9,44,30.21,10.0,West,5.8,-,N/A,,Overcast,280,2013-12-05 22:53:00
4:53 PM,21.9,3.9,46,30.22,10.0,West,3.5,-,N/A,,Mostly Cloudy,270,2013-12-05 23:53:00
5:53 PM,21.0,5.0,50,30.22,10.0,North,3.5,-,N/A,,Partly Cloudy,350,2013-12-06 00:53:00
6:53 PM,19.9,6.1,55,30.22,10.0,ENE,3.5,-,N/A,,Partly Cloudy,60,2013-12-06 01:53:00
7:53 PM,18.0,7.0,62,30.23,10.0,SE,3.5,-,N/A,,Partly Cloudy,130,2013-12-06 02:53:00
8:53 PM,16.0,8.1,71,30.24,10.0,Calm,Calm,-,N/A,,Mostly Cloudy,0,2013-12-06 03:53:00
9:53 PM,17.1,8.1,68,30.22,10.0,ESE,4.6,-,N/A,,Partly Cloudy,120,2013-12-06 04:53:00
10:53 PM,16.0,9.0,74,30.22,10.0,SE,5.8,-,N/A,,Clear,140,2013-12-06 05:53:00
11:53 PM,16.0,9.0,74,30.22,10.0,SE,6.9,-,N/A,,Scattered Clouds,140,2013-12-06 06:53:00